Tracking 31027 objects as of 19-Jul-2025
HD Live streaming from Space Station
objects crossing your sky now

NOAA 16 DEB

Track NOAA 16 DEB now!
10-day predictions


NORAD ID: 41537
Int'l Code: 2000-055NM
Perigee: 822.3 km
Apogee: 828.2 km
Inclination: 98.6 °
Period: 101.3 minutes
Semi major axis: 7196 km
RCS: Unknown
Launch date: September 21, 2000
Source: United States (US)
Launch site: AIR FORCE WESTERN TEST RANGE (AFWTR)

Note: This is SATELLITE DEBRIS
Your satellite tracking list
STARLINK-30103
Track 1 satellite(s)




NASA's NSSDC Master Catalog

Two Line Element Set (TLE):
1 41537U 00055NM  25199.62753061  .00001422  00000-0  66147-3 0  9992
2 41537  98.6288 265.7056 0004105 170.8788 189.2465 14.22134658490186
Source of the keplerian elements: AFSPC